User: anonymous   Login
Location: Angwan Shehu
(11.2514°N, 7.4613°E)
Time: 11:54:11
(UTC+00:00)
Language:

Transit 2A - Orbit

View from above orbital plane
View from above orbital plane
View from above satellite
View from above satellite

Ground track
Ground track

The orbit data is extracted from the following two-line orbital elements,

1 00045U 60007A   21107.94762704 -.00000019  00000-0  22259-4 0  9997
2 00045  66.6937 298.4581 0247881  94.0683 268.8788 14.33715550109488
Epoch (UTC): 17 April 2021 22:44:34
Eccentricity: 0.0247881
inclination: 66.6937°
perigee height: 602 km
apogee height: 957 km
right ascension of ascending node: 298.4581°
argument of perigee: 94.0683°
revolutions per day: 14.33715550
mean anomaly at epoch: 268.8788°
orbit number at epoch: 10948

The dashed part of the orbit path shows where the satellite is in the earth's shadow,  

DLR